Home   Weather   Misrata   Past weeks

Flag for Libya Past Weather in Misrata, Libya — Yesterday and Last 2 Weeks

Now
63 °F

Scattered clouds.


Feels Like: 63 °F
Forecast: 64 / 71 °F
Wind: 7 mph from East

Location: Luqa

Current Time: Dec 8, 2016 at 6:09:00 pm

Latest Report: Dec 8, 2016 at 5:45 pm


Visibility: N/A

Pressure: 30.42 "Hg

Humidity: 77%

Dew Point: 55 °F

Location of MisrataLocation

Past Weather in Misrata — Graph

°F

Misrata Temperature Yesterday

Maximum temperature yesterday: 63 °F (at 12:45 am)
Minimum temperature yesterday: 59 °F (at 3:15 am)
Average temperature yesterday: 61 °F

High & Low Weather Summary for the Past Weeks

 TemperatureHumidityPressure
High72 °F (Nov 25, 11:45 am)100% (Nov 25, 9:45 pm)30.42 "Hg (Nov 25, 9:45 pm)
Low48 °F (Dec 1, 3:45 am)39% (Nov 30, 5:15 pm)29.77 "Hg (Nov 28, 4:15 am)
Average61 °F78%30.09 "Hg
* Reported Nov 23 4:15 pm — Dec 8 4:45 pm, Misrata, Weather by CustomWeather, © 2016

Note: Actual official high and low records may vary slightly from our data, if they occured in-between our weather recording intervals... More about our weather records

Advertising

Misrata Weather History for the Previous 24 Hours

Scroll right to see more
 ConditionsComfort  
Time TempWeatherWind HumidityBarometerVisibility
4:45 pm
Thu, Dec 8
63 °FPartly sunny.7 mph94%30.42 "HgN/A
4:15 pm63 °FScattered clouds.9 mph88%30.42 "HgN/A
3:45 pm63 °FScattered clouds.9 mph88%30.39 "HgN/A
3:15 pm63 °FScattered clouds.10 mph88%30.39 "HgN/A
2:45 pm61 °FPartly sunny.7 mph100%30.42 "Hg6 mi
2:15 pm61 °FBroken clouds.9 mph100%30.42 "Hg5 mi
1:45 pm61 °FRain. Broken clouds.12 mph100%30.42 "Hg3 mi
1:15 pm63 °FLight rain. Broken clouds.15 mph88%30.42 "Hg4 mi
12:45 pm63 °FLight rain. Broken clouds.16 mph88%30.42 "Hg6 mi
12:15 pm63 °FLight rain. Partly sunny.14 mph88%30.42 "Hg4 mi
11:45 am63 °FPartly sunny.16 mph88%30.42 "HgN/A
11:15 am63 °FPartly sunny.18 mph88%30.42 "HgN/A
11:03 am63 °FScattered clouds.20 mph88%30.42 "HgN/A
10:45 am61 °FBroken clouds.17 mph94%30.42 "HgN/A
10:15 am61 °FLight rain. Broken clouds.16 mph94%30.42 "Hg6 mi
9:45 am61 °FBroken clouds.17 mph88%30.42 "HgN/A
9:15 am61 °FLight rain. Broken clouds.17 mph88%30.42 "Hg6 mi
8:45 am61 °FBroken clouds.16 mph88%30.42 "HgN/A
8:15 am63 °FBroken clouds.17 mph83%30.39 "HgN/A
7:45 am61 °FPassing clouds.16 mph88%30.39 "HgN/A
7:15 am61 °FPassing clouds.17 mph88%30.39 "HgN/A
6:45 am61 °FPassing clouds.16 mph88%30.39 "HgN/A
6:15 am61 °FPassing clouds.15 mph94%30.36 "HgN/A
5:45 am61 °FPassing clouds.17 mph88%30.36 "HgN/A
5:15 am59 °FLight rain. Passing clouds.16 mph100%30.36 "Hg2 mi
4:45 am61 °FPassing clouds.18 mph88%30.36 "HgN/A
4:15 am61 °FPassing clouds.16 mph94%30.36 "HgN/A
3:45 am61 °FPassing clouds.17 mph94%30.36 "HgN/A
3:15 am61 °FPassing clouds.16 mph94%30.36 "HgN/A
2:45 am61 °FPassing clouds.15 mph94%30.36 "HgN/A
2:15 am61 °FPassing clouds.14 mph94%30.36 "HgN/A
1:45 am63 °FPartly cloudy.14 mph88%30.36 "HgN/A
1:15 am63 °FPartly cloudy.13 mph88%30.36 "HgN/A
12:45 am63 °FPartly cloudy.14 mph88%30.36 "HgN/A
12:15 am63 °FPartly cloudy.12 mph88%30.33 "HgN/A
11:45 pm
Wed, Dec 7
63 °FPartly cloudy.10 mph88%30.33 "HgN/A
11:15 pm63 °FPassing clouds.8 mph88%30.33 "HgN/A
10:45 pm61 °FPassing clouds.8 mph94%30.33 "HgN/A
10:15 pm61 °FPassing clouds.9 mph88%30.33 "HgN/A
9:45 pm61 °FPassing clouds.9 mph88%30.33 "HgN/A
9:15 pm61 °FPassing clouds.8 mph88%30.30 "HgN/A
8:45 pm61 °FPassing clouds.9 mph88%30.30 "HgN/A
8:15 pm61 °FPassing clouds.8 mph88%30.30 "HgN/A
7:45 pm61 °FPassing clouds.8 mph88%30.27 "HgN/A
7:15 pm61 °FPassing clouds.7 mph88%30.27 "HgN/A
6:45 pm61 °FPassing clouds.6 mph88%30.27 "HgN/A
6:15 pm61 °FPassing clouds.6 mph94%30.27 "HgN/A
Weather by CustomWeather, © 2016

See weather overviewHow to use our weather pages